Hourly Weather Rudoe

Today, 18 April, Sunday

Time Temperature Precipitation Wind Pressure Humidity
00:00 +8°C° 0 mm 3 mps 750 mmHg 90%
01:00 +7°C° 0 mm 4 mps 750 mmHg 89%
02:00 +7°C° 0 mm 4 mps 750 mmHg 89%
03:00 +7°C° 0 mm 4 mps 750 mmHg 91%
04:00 +7°C° 0 mm 3 mps 750 mmHg 93%
05:00 +5°C° 0 mm 3 mps 750 mmHg 95%
06:00 +7°C° 0 mm 3 mps 750 mmHg 89%
07:00 +7°C° 0 mm 4 mps 750 mmHg 82%
08:00 +8°C° 0 mm 5 mps 750 mmHg 76%
09:00 +10°C° 0 mm 5 mps 751 mmHg 68%
10:00 +12°C° 0 mm 5 mps 751 mmHg 60%
11:00 +13°C° 0 mm 5 mps 751 mmHg 52%
12:00 +14°C° 0 mm 5 mps 751 mmHg 48%
13:00 +15°C° 0 mm 5 mps 751 mmHg 44%
14:00 +15°C° 0 mm 5 mps 751 mmHg 39%
15:00 +15°C° 0 mm 5 mps 751 mmHg 41%
16:00 +15°C° 0 mm 5 mps 751 mmHg 44%
17:00 +14°C° 0 mm 4 mps 751 mmHg 46%
18:00 +13°C° 0 mm 4 mps 751 mmHg 53%
19:00 +11°C° 0 mm 3 mps 751 mmHg 60%
20:00 +9°C° 0 mm 3 mps 751 mmHg 66%
21:00 +8°C° 0 mm 2 mps 752 mmHg 69%
22:00 +8°C° 0 mm 2 mps 752 mmHg 71%
23:00 +7°C° 0 mm 2 mps 752 mmHg 74%

Tomorrow, 19 April, Monday

Time Temperature Precipitation Wind Pressure Humidity
00:00 +6°C° 0 mm 2 mps 752 mmHg 76%
01:00 +6°C° 0 mm 2 mps 752 mmHg 77%
02:00 +6°C° 0 mm 2 mps 752 mmHg 79%
03:00 +5°C° 0 mm 2 mps 752 mmHg 80%
04:00 +4°C° 0 mm 3 mps 752 mmHg 82%
05:00 +4°C° 0 mm 3 mps 752 mmHg 83%
06:00 +5°C° 0 mm 3 mps 752 mmHg 79%
07:00 +6°C° 0 mm 4 mps 752 mmHg 75%
08:00 +8°C° 0 mm 4 mps 753 mmHg 71%
09:00 +10°C° 0 mm 4 mps 753 mmHg 67%
10:00 +11°C° 0 mm 4 mps 752 mmHg 63%
11:00 +12°C° 0 mm 4 mps 752 mmHg 59%
12:00 +12°C° 0.1 mm 4 mps 752 mmHg 58%
13:00 +12°C° 0.1 mm 4 mps 752 mmHg 58%
14:00 +12°C° 0.1 mm 3 mps 752 mmHg 57%
15:00 +12°C° 0.1 mm 4 mps 752 mmHg 59%
16:00 +11°C° 0.1 mm 4 mps 752 mmHg 61%
17:00 +11°C° 0.1 mm 4 mps 752 mmHg 62%
18:00 +10°C° 0 mm 4 mps 752 mmHg 69%
19:00 +7°C° 0 mm 4 mps 752 mmHg 75%
20:00 +7°C° 0 mm 3 mps 752 mmHg 82%
21:00 +7°C° 0 mm 3 mps 752 mmHg 83%
22:00 +5°C° 0 mm 3 mps 752 mmHg 85%
23:00 +5°C° 0 mm 3 mps 752 mmHg 86%

Day after tomorrow, 20 April, Tuesday

Time Temperature Precipitation Wind Pressure Humidity
00:00 +5°C° 0 mm 3 mps 751 mmHg 87%
01:00 +5°C° 0 mm 3 mps 751 mmHg 87%
02:00 +6°C° 0 mm 2 mps 751 mmHg 87%
03:00 +6°C° 0.1 mm 2 mps 750 mmHg 88%
04:00 +6°C° 0.1 mm 2 mps 750 mmHg 89%
05:00 +5°C° 0.1 mm 2 mps 750 mmHg 90%
06:00 +5°C° 0.2 mm 3 mps 750 mmHg 85%
07:00 +5°C° 0.2 mm 3 mps 749 mmHg 80%
08:00 +6°C° 0.2 mm 4 mps 749 mmHg 75%
09:00 +6°C° 0.1 mm 4 mps 749 mmHg 72%
10:00 +7°C° 0.1 mm 4 mps 748 mmHg 68%
11:00 +7°C° 0.1 mm 4 mps 748 mmHg 65%
12:00 +7°C° 0.1 mm 4 mps 748 mmHg 62%
13:00 +7°C° 0.1 mm 4 mps 747 mmHg 60%
14:00 +8°C° 0.1 mm 4 mps 747 mmHg 57%
15:00 +7°C° 0 mm 4 mps 747 mmHg 58%
16:00 +8°C° 0 mm 3 mps 746 mmHg 59%
17:00 +8°C° 0 mm 3 mps 746 mmHg 60%
18:00 +7°C° 0 mm 3 mps 746 mmHg 65%
19:00 +6°C° 0 mm 2 mps 745 mmHg 70%
20:00 +5°C° 0 mm 2 mps 745 mmHg 75%
21:00 +5°C° 0 mm 2 mps 745 mmHg 78%
22:00 +4°C° 0 mm 2 mps 744 mmHg 80%
23:00 +4°C° 0 mm 2 mps 744 mmHg 83%

21 April, Wednesday

Time Temperature Precipitation Wind Pressure Humidity
00:00 +3°C° 0 mm 2 mps 743 mmHg 85%
01:00 +3°C° 0 mm 2 mps 743 mmHg 88%
02:00 +2°C° 0 mm 2 mps 743 mmHg 91%
03:00 +2°C° 0 mm 2 mps 742 mmHg 92%
04:00 +1°C° 0 mm 2 mps 742 mmHg 92%
05:00 +1°C° 0 mm 2 mps 742 mmHg 93%
06:00 +2°C° 0 mm 3 mps 741 mmHg 88%
07:00 +3°C° 0 mm 3 mps 741 mmHg 82%
08:00 +4°C° 0 mm 4 mps 741 mmHg 77%
09:00 +5°C° 0 mm 4 mps 741 mmHg 71%
10:00 +6°C° 0 mm 5 mps 741 mmHg 65%
11:00 +7°C° 0 mm 5 mps 740 mmHg 59%
12:00 +7°C° 0 mm 5 mps 740 mmHg 57%
13:00 +8°C° 0 mm 5 mps 740 mmHg 55%
14:00 +8°C° 0 mm 4 mps 740 mmHg 53%
15:00 +8°C° 0 mm 4 mps 741 mmHg 54%
16:00 +10°C° 0 mm 4 mps 741 mmHg 55%
17:00 +10°C° 0 mm 4 mps 741 mmHg 56%
18:00 +8°C° 0 mm 3 mps 741 mmHg 61%
19:00 +7°C° 0 mm 3 mps 741 mmHg 66%
20:00 +5°C° 0 mm 2 mps 742 mmHg 72%
21:00 +4°C° 0 mm 3 mps 742 mmHg 74%
22:00 +4°C° 0 mm 3 mps 742 mmHg 77%
23:00 +3°C° 0 mm 3 mps 742 mmHg 79%

22 April, Thursday

Time Temperature Precipitation Wind Pressure Humidity
00:00 +3°C° 0 mm 3 mps 743 mmHg 82%
01:00 +3°C° 0 mm 3 mps 743 mmHg 85%
02:00 +2°C° 0 mm 3 mps 743 mmHg 88%
03:00 +2°C° 0 mm 3 mps 743 mmHg 89%
04:00 +2°C° 0 mm 3 mps 744 mmHg 90%
05:00 +3°C° 0 mm 2 mps 744 mmHg 91%
06:00 +4°C° 0 mm 2 mps 744 mmHg 83%
07:00 +6°C° 0 mm 2 mps 744 mmHg 76%
08:00 +8°C° 0 mm 2 mps 745 mmHg 68%
09:00 +10°C° 0.1 mm 3 mps 745 mmHg 64%
10:00 +11°C° 0.1 mm 3 mps 745 mmHg 59%
11:00 +13°C° 0.1 mm 4 mps 745 mmHg 55%
12:00 +13°C° 0.2 mm 4 mps 745 mmHg 56%
13:00 +13°C° 0.2 mm 5 mps 745 mmHg 58%
14:00 +13°C° 0.2 mm 6 mps 745 mmHg 60%
15:00 +12°C° 0.3 mm 5 mps 745 mmHg 65%
16:00 +10°C° 0.3 mm 5 mps 746 mmHg 71%
17:00 +10°C° 0.3 mm 4 mps 746 mmHg 76%
18:00 +9°C° 0.1 mm 3 mps 746 mmHg 79%
19:00 +8°C° 0.1 mm 2 mps 747 mmHg 81%
20:00 +8°C° 0.1 mm 1 mps 747 mmHg 84%
21:00 +8°C° 0 mm 1 mps 747 mmHg 85%
22:00 +7°C° 0 mm 1 mps 747 mmHg 86%
23:00 +7°C° 0 mm 1 mps 747 mmHg 88%

23 April, Friday

Time Temperature Precipitation Wind Pressure Humidity
00:00 +6°C° 0 mm 1 mps 747 mmHg 88%
01:00 +6°C° 0 mm 1 mps 747 mmHg 89%
02:00 +5°C° 0 mm 1 mps 747 mmHg 90%
03:00 +5°C° 0.1 mm 2 mps 747 mmHg 90%
04:00 +5°C° 0.1 mm 2 mps 747 mmHg 89%
05:00 +5°C° 0.1 mm 2 mps 746 mmHg 89%
06:00 +3°C° 1.8 mm 3 mps 747 mmHg 90%
07:00 +3°C° 1.8 mm 4 mps 747 mmHg 92%
08:00 +2°C° 1.8 mm 5 mps 747 mmHg 93%
09:00 +3°C° 0.8 mm 4 mps 747 mmHg 93%
10:00 +3°C° 0.8 mm 4 mps 748 mmHg 93%
11:00 +3°C° 0.8 mm 4 mps 748 mmHg 93%
12:00 +4°C° 0.2 mm 4 mps 748 mmHg 88%
13:00 +5°C° 0.2 mm 4 mps 749 mmHg 82%
14:00 +6°C° 0.2 mm 4 mps 749 mmHg 76%
15:00 +6°C° 0.1 mm 4 mps 749 mmHg 75%
16:00 +6°C° 0.1 mm 4 mps 750 mmHg 74%
17:00 +6°C° 0.1 mm 4 mps 750 mmHg 72%
18:00 +5°C° 0 mm 4 mps 750 mmHg 76%
19:00 +4°C° 0 mm 3 mps 751 mmHg 79%
20:00 +3°C° 0 mm 3 mps 751 mmHg 82%
21:00 +2°C° 0 mm 3 mps 751 mmHg 81%
22:00 +2°C° 0 mm 3 mps 752 mmHg 81%
23:00 +1°C° 0 mm 3 mps 752 mmHg 80%
Show more